Location: Dumpton Point
(51.3500°N, 1.4433°E)
Time: 04:47:45
(UTC+00:00)

Altair - Pass Details

Date: 01 October 2022
Orbit: 1501 x 1682 km, 47.2° (Epoch: 04 December)

Event Time Altitude Azimuth Distance (km) Brightness Sun altitude
Rises 13:38:46 0° 284° (WNW) 4,937 10.4 30.1°
Reaches altitude 10° 13:45:25 10° 253° (WSW) 3,943 10.6 29.5°
Maximum altitude 13:47:50 11° 239° (WSW) 3,850 10.9 29.3°
Drops below altitude 10° 13:50:15 10° 225° (SW) 3,929 11.3 29.1°
Sets 13:56:54 0° 194° (SSW) 4,882 11.1 28.4°
